STARLINK-36074

Last updated on Fri Dec 19 2025 00:02:08 GMT+0000 (Coordinated Universal Time)

1 66900U 25283Y 25352.58336806 -.01569074 00000+0 -10462-1 0 9994 2 66900 53.1550 44.3415 0001164 69.0871 100.0606 15.77759790 3368
UTC large
Height (km)
Speed (km/s)
/
Latitude / Longitude
Inclination (degrees)
Orbital Period (minutes)
Azimuth
Elevation
Range (km)
Doppler Factor

Next 0 passes for location: London (51.5072 / 0.1276)

Sorry there are no passes over London.